FLOCK 3P-75

Last updated on Wed Feb 14 2018 16:20:24 GMT+0000 (Coordinated Universal Time)

1 41979U 17008AH 18045.17476602 .00002346 00000-0 99988-4 0 9999 2 41979 97.4681 110.8180 0009879 72.4975 287.7341 15.23916749 55361
UTC large
Height (km)
Speed (km/s)
/
Latitude / Longitude
Inclination (degrees)
Orbital Period (minutes)
Azimuth
Elevation
Range (km)
Doppler Factor

Next 0 passes for location: London (51.5072 / 0.1276)

Sorry there are no passes over London.
FLOCK 3P-75